Location: La Trinit�
(48.1620°N, 3.4512°W)
Time: 18:06:33
(UTC+00:00)

BREEZE-M DEB (TANK) - Pass Details

Date: 08 May 2021
Orbit: 284 x 18730 km, 52.5° (Epoch: 21 June)

Event Time Altitude Azimuth Distance (km) Brightness Sun altitude
Rises 21:38:51 0° 254° (WSW) 8,749 9.2 -16.3°
Reaches altitude 10° 21:47:22 10° 257° (WSW) 5,364 8.1 -17.1°
Maximum altitude 21:57:58 64° 339° (NNW) 872 4.0 -18.1°
Drops below altitude 10° 22:01:03 10° 63° (ENE) 1,630 5.2 -18.4°
Enters shadow 22:01:39 - 66° (ENE) 1,918 5.5 -18.5°
